Wetbulb
63.33 63.30 63.21 64.39 65.46 66.61 67.33 67.69 69.14 69.24 68.87 68.32 68.44 69.77 69.89 69.85 69.48 69.50 69.33 69.80 70.41 70.98 71.40 71.96 73.27 73.29 73.07 72.70 72.41 71.81 72.20 72.58 72.53
61.97 64.03 64.59 64.63 65.40 66.52 66.97 67.73 68.31 69.24 69.01 68.80 68.54 69.59 70.26 69.99 69.61 68.93 68.19 68.53 70.71 71.13 71.75 71.97 72.67 72.86 72.91 73.03 72.83 72.59 72.29 72.24 72.13
59.98 61.80 62.90 64.86 65.77 66.14 67.17 68.01 68.56 69.87 69.73 68.73 69.08 69.25 69.41 70.31 70.09 69.70 69.70 70.05 69.79 70.43 71.18 72.14 71.66 72.30 72.66 72.46 72.70 72.70 72.49 72.35 71.89
58.79 59.98 60.98 62.21 63.88 67.13 67.24 68.20 69.14 69.67 70.22 70.43 69.27 69.47 69.89 70.16 70.53 70.87 71.18 70.35 70.47 70.40 70.61 70.34 70.75 71.85 72.56 72.64 72.09 72.87 72.07 72.37 72.28
58.05 58.99 59.70 61.00 62.66 64.48 67.27 67.69 68.95 68.82 68.80 68.60 68.82 68.60 69.33 70.16 70.98 71.40 71.47 70.34 71.27 72.17 71.34 71.23 70.86 71.51 72.01 72.18 72.32 72.73 72.81 72.30 72.99
56.39 56.71 57.77 59.36 61.55 62.73 63.80 66.56 67.92 67.94 67.92 67.90 68.08 68.14 67.56 66.88 67.20 68.12 69.00 69.92 71.21 71.62 72.09 71.84 70.73 70.85 70.36 70.12 70.04 70.93 71.83 72.67 71.81
54.69 55.77 56.75 57.70 58.82 60.75 61.52 63.13 65.09 66.97 67.11 67.67 67.87 67.67 67.33 67.31 67.29 68.03 67.87 67.81 68.28 68.90 70.70 71.74 71.20 70.95 70.46 70.26 69.66 69.15 70.14 71.75 72.14
52.71 53.57 54.96 56.35 57.01 58.42 59.61 60.93 62.34 63.96 64.30 65.79 67.76 67.63 67.67 67.06 67.02 67.72 68.50 68.21 68.50 68.49 68.81 69.24 71.01 71.56 70.89 70.45 69.59 69.32 69.74 70.89 71.80
50.78 52.24 53.59 54.92 55.66 57.14 58.31 59.28 60.67 61.73 62.19 62.53 63.89 63.81 64.78 66.11 65.37 64.38 65.06 66.46 66.82 67.16 67.22 67.71 68.99 69.19 70.69 71.26 72.00 67.04 65.59 69.38 72.03
49.88 51.05 52.44 53.80 54.57 55.42 56.07 56.66 58.14 58.82 59.67 60.93 60.99 60.86 61.44 62.08 62.46 61.79 62.21 62.92 63.24 64.50 63.92 64.77 64.90 65.71 66.55 67.87 69.71 63.11 62.89 65.07 69.67
50.63 51.56 52.60 53.01 53.16 54.64 56.38 56.95 56.29 56.39 56.62 56.44 56.75 56.47 56.80 58.09 58.93 59.02 60.29 60.58 59.93 61.33 62.13 63.09 63.43 63.93 65.24 65.95 66.77 62.14 60.76 62.67 68.17
50.24 52.29 51.77 51.96 53.79 54.31 54.12 53.55 53.82 52.87 52.89 53.22 52.72 52.58 53.06 54.43 56.25 55.43 55.76 55.99 57.36 58.13 58.93 60.74 61.33 63.09 63.41 64.50 64.74 54.83 55.22 60.24 67.02
50.89 50.92 51.37 51.41 51.73 52.57 51.34 51.26 52.09 51.11 50.60 50.45 49.48 50.15 50.62 51.80 53.09 53.34 53.44 54.05 55.12 56.75 57.29 58.62 61.23 61.62 60.91 58.85 60.65 53.48 52.86 57.08 61.74
49.40 49.30 49.17 49.69 49.54 48.88 49.06 49.55 49.43 47.73 47.53 46.99 48.15 48.75 48.82 48.87 48.98 50.19 50.30 52.37 52.77 53.43 54.51 54.94 55.10 55.65 56.88 57.38 55.18 54.87 51.69 51.64 53.13
48.03 47.94 48.25 48.47 47.25 46.91 47.73 48.34 47.54 45.93 45.71 46.50 47.16 47.02 46.75 46.58 46.61 47.18 47.42 48.82 49.15 50.59 51.05 51.24 50.20 51.87 52.47 53.30 53.97 53.71 51.09 50.49 50.72
48.18 48.00 47.32 47.56 46.51 46.11 46.83 47.18 46.78 45.17 45.46 46.12 45.71 45.06 44.63 44.82 45.38 45.49 46.13 46.01 46.54 46.87 48.05 48.00 47.86 48.41 47.27 47.93 49.92 50.73 50.71 49.55 49.63
47.66 47.54 46.79 47.17 46.07 45.62 45.40 46.02 45.97 45.59 45.48 45.29 44.58 43.84 43.58 43.85 43.96 43.77 44.31 45.10 45.33 44.82 45.07 44.64 44.97 45.50 45.18 46.19 47.86 49.12 48.79 48.15 48.35
47.16 46.86 46.82 46.53 45.76 45.25 44.88 44.95 44.74 44.94 44.53 44.25 43.02 42.91 42.86 42.73 43.01 42.77 43.26 43.71 43.58 44.23 45.09 44.35 44.06 44.62 44.90 44.75 44.80 46.05 44.53 43.30 45.23
46.12 46.30 46.07 45.01 45.14 44.99 44.28 44.25 44.35 44.26 44.14 43.68 42.87 42.42 42.50 42.67 42.29 42.52 42.65 42.56 42.67 43.76 43.68 43.19 42.00 41.47 42.69 45.30 44.12 42.62 41.24 40.23 40.73
46.49 45.91 45.92 45.19 45.31 45.08 44.26 44.22 43.96 44.35 43.88 43.24 42.20 41.59 42.05 42.02 41.97 42.21 41.90 41.70 41.11 40.34 42.48 42.99 41.95 40.96 41.38 41.44 40.78 40.45 39.53 39.21 40.02
MSLP
1014.61 1015.24 1015.33 1015.77 1016.15 1016.55 1017.01 1017.61 1018.11 1018.54 1018.96 1019.47 1019.91 1020.22 1020.62 1020.95 1021.24 1021.29 1021.51 1021.68 1021.86 1022.03 1022.07 1021.97 1021.86 1022.07 1022.35 1022.62 1022.94 1023.12 1023.17 1023.24 1023.33
1015.58 1015.83 1016.15 1016.18 1016.55 1017.02 1017.33 1017.67 1017.89 1018.16 1018.65 1019.18 1019.64 1019.92 1020.49 1020.89 1021.12 1021.28 1021.30 1021.50 1021.70 1021.75 1021.84 1021.77 1021.85 1022.04 1022.25 1022.44 1022.70 1022.94 1023.15 1023.37 1023.42
1016.55 1016.72 1016.83 1016.89 1016.99 1017.10 1017.31 1017.66 1018.09 1018.23 1018.54 1019.14 1019.72 1020.04 1020.33 1020.82 1021.01 1021.21 1021.29 1021.40 1021.59 1021.56 1021.64 1021.82 1021.98 1021.98 1022.13 1022.34 1022.40 1022.78 1022.91 1023.23 1023.32
1017.29 1017.38 1017.65 1017.65 1017.58 1017.55 1017.71 1018.09 1018.30 1018.53 1018.67 1019.02 1019.52 1020.04 1020.47 1020.66 1021.10 1021.25 1021.39 1021.45 1021.33 1021.40 1021.48 1021.70 1021.95 1021.89 1022.05 1022.15 1022.36 1022.48 1022.76 1023.01 1023.34
1018.01 1018.01 1018.12 1018.16 1018.04 1018.06 1018.05 1018.21 1018.52 1018.72 1018.90 1019.18 1019.67 1020.41 1020.37 1020.66 1021.00 1021.21 1021.25 1021.41 1021.31 1020.95 1021.32 1021.38 1021.49 1021.65 1021.97 1022.01 1022.17 1022.18 1022.55 1022.76 1022.97
1018.54 1018.64 1018.54 1018.57 1018.48 1018.48 1018.39 1018.45 1018.70 1018.92 1019.23 1019.55 1019.66 1019.66 1020.40 1021.16 1021.44 1021.37 1021.23 1021.20 1021.16 1021.02 1021.19 1021.36 1021.33 1021.46 1021.88 1021.96 1022.04 1022.24 1022.33 1022.56 1022.79
1018.66 1018.70 1018.72 1018.77 1018.82 1018.80 1018.74 1018.77 1018.85 1018.96 1019.62 1019.73 1020.16 1020.24 1020.78 1021.22 1021.71 1021.49 1021.30 1021.32 1021.34 1021.08 1021.01 1021.25 1021.29 1021.45 1021.67 1021.75 1021.90 1022.02 1022.19 1022.34 1022.47
1018.87 1018.97 1019.05 1019.09 1019.10 1019.19 1019.21 1019.20 1019.31 1019.37 1019.77 1019.91 1020.14 1020.57 1020.89 1021.02 1021.07 1021.26 1021.43 1021.39 1021.65 1021.57 1021.36 1021.40 1021.41 1021.43 1021.46 1021.46 1021.60 1021.47 1021.76 1021.99 1022.00
1018.96 1019.15 1019.18 1019.35 1019.57 1019.70 1019.77 1019.82 1019.89 1020.07 1020.21 1020.30 1020.43 1020.74 1021.12 1021.14 1021.13 1021.00 1021.62 1021.76 1021.87 1021.90 1021.81 1021.89 1021.79 1021.68 1021.57 1021.66 1021.67 1021.43 1021.60 1021.69 1021.70
1019.23 1019.46 1019.65 1019.83 1019.86 1020.12 1020.23 1020.49 1020.70 1020.85 1020.97 1021.07 1021.20 1021.56 1021.55 1021.83 1021.82 1022.02 1022.12 1022.35 1022.69 1022.44 1022.31 1022.24 1022.08 1022.04 1021.90 1021.95 1021.91 1021.86 1021.68 1021.52 1021.45
1019.44 1019.55 1019.77 1020.10 1020.44 1020.60 1020.81 1021.20 1021.48 1021.52 1021.69 1021.81 1021.99 1022.29 1022.64 1022.67 1022.68 1022.76 1022.91 1023.06 1022.95 1023.05 1022.55 1022.56 1022.40 1022.18 1022.11 1022.13 1022.09 1021.99 1021.94 1021.52 1021.22
1019.64 1020.05 1020.31 1020.60 1020.91 1021.23 1021.35 1021.76 1022.21 1022.31 1022.53 1022.73 1022.92 1023.29 1023.40 1023.45 1023.44 1023.42 1023.46 1023.46 1023.17 1022.81 1022.63 1022.77 1022.73 1022.39 1022.11 1022.48 1022.68 1022.56 1022.18 1021.69 1021.50
1020.13 1020.41 1020.70 1021.09 1021.59 1022.00 1022.18 1022.58 1022.76 1023.02 1023.45 1023.66 1023.98 1024.11 1024.24 1024.07 1024.03 1023.90 1023.78 1023.77 1023.63 1023.40 1023.38 1023.05 1022.83 1022.99 1022.40 1022.69 1023.13 1022.87 1022.68 1022.29 1022.40
1020.54 1021.05 1021.34 1021.84 1022.25 1022.76 1023.12 1023.38 1023.33 1023.92 1024.28 1024.55 1024.77 1024.75 1024.69 1024.59 1024.53 1024.47 1024.42 1024.23 1024.02 1023.99 1023.86 1023.71 1023.45 1023.47 1023.22 1023.34 1022.99 1023.47 1023.11 1023.27 1023.26
1021.00 1021.36 1022.13 1022.53 1022.99 1023.61 1023.87 1023.93 1023.79 1024.48 1024.83 1025.18 1025.22 1025.24 1025.19 1025.16 1025.08 1024.93 1024.90 1024.68 1024.56 1024.43 1024.14 1023.94 1024.21 1024.01 1023.92 1023.87 1023.38 1023.36 1023.73 1023.77 1023.76
1021.57 1021.95 1022.49 1023.12 1023.41 1024.03 1024.34 1024.44 1024.44 1024.85 1025.42 1025.57 1025.72 1025.85 1025.92 1025.83 1025.66 1025.50 1025.44 1025.16 1025.09 1025.03 1025.05 1024.85 1024.83 1024.79 1024.54 1024.29 1024.17 1023.84 1023.57 1023.71 1023.60
1021.92 1022.44 1022.79 1023.34 1023.77 1024.25 1024.71 1024.87 1024.92 1025.07 1025.43 1025.62 1025.90 1026.10 1026.22 1026.17 1026.04 1026.04 1026.02 1025.97 1025.79 1025.67 1025.62 1025.77 1025.74 1025.52 1025.49 1025.09 1024.68 1024.61 1024.63 1024.39 1023.93
1021.90 1022.42 1022.93 1023.08 1023.66 1024.26 1024.70 1025.04 1025.31 1025.43 1025.60 1025.83 1026.10 1026.25 1026.40 1026.51 1026.48 1026.39 1026.47 1026.51 1026.35 1026.15 1025.97 1026.06 1026.04 1026.09 1025.92 1025.61 1025.53 1025.51 1025.59 1025.39 1025.03
1021.79 1022.55 1022.72 1023.16 1023.73 1024.08 1024.59 1025.01 1025.39 1025.70 1025.88 1025.95 1026.15 1026.41 1026.51 1026.44 1026.56 1026.72 1026.74 1026.67 1026.46 1026.36 1026.26 1026.04 1026.03 1026.12 1026.11 1025.73 1025.64 1025.68 1025.77 1025.50 1025.01
1021.38 1022.24 1022.56 1022.97 1023.46 1024.08 1024.49 1024.93 1025.38 1025.66 1025.91 1026.07 1026.17 1026.33 1026.57 1026.67 1026.55 1026.71 1026.93 1026.90 1026.75 1026.62 1026.47 1026.34 1026.30 1026.34 1026.31 1026.20 1026.21 1025.78 1025.38 1024.78 1024.37
Wind_Speed
9 7 9 12 12 14 15 12 10 10 12 11 9 8 7 6 6 4 4 4 3 3 3 3 3 3 4 4 3 3 3 2 2
10 7 5 7 7 11 9 8 9 12 10 9 9 8 5 5 4 5 5 5 3 3 3 3 4 4 4 5 4 4 4 2 3
7 8 7 5 4 8 9 8 4 5 6 6 4 4 5 4 5 5 4 4 4 4 3 3 3 4 5 5 5 5 4 3 3
5 5 4 4 4 2 7 7 5 5 6 7 7 3 3 5 4 4 3 3 4 4 3 3 4 4 4 5 4 5 4 4 4
4 4 3 2 4 4 5 8 7 5 7 6 7 3 2 3 2 3 3 3 5 3 4 3 4 4 4 5 5 4 5 5 5
5 5 4 3 3 5 5 4 5 8 8 7 9 8 8 5 4 4 4 3 1 1 3 3 3 4 4 4 3 4 5 5 5
4 3 3 3 3 3 3 5 4 9 8 9 8 10 9 6 3 4 5 4 5 5 4 1 3 3 4 4 4 5 5 6 6
6 5 4 4 3 3 3 4 6 6 6 4 5 5 5 6 6 5 4 5 4 4 5 4 3 1 3 4 5 5 6 6 6
6 6 5 6 5 5 5 4 6 6 6 6 6 6 5 4 5 6 5 6 5 5 5 5 6 6 6 4 3 7 8 6 5
6 6 5 6 7 8 7 8 7 7 6 7 8 8 8 6 5 6 6 5 5 6 5 4 5 5 6 6 6 10 10 7 5
7 7 8 7 7 9 9 9 10 9 10 10 10 10 9 7 7 7 5 4 4 3 3 4 3 4 5 4 4 8 9 8 4
6 7 7 8 8 9 10 10 8 10 10 9 10 9 8 7 6 5 5 5 5 5 4 3 3 2 5 6 10 18 20 8 5
9 10 9 9 9 9 10 7 8 10 9 9 9 7 6 6 6 6 6 5 4 4 4 4 3 5 8 9 9 16 20 16 8
9 8 10 7 8 8 6 5 8 9 7 8 5 5 6 6 6 6 6 5 5 5 4 5 6 5 6 6 8 9 15 16 8
11 12 9 8 9 7 4 5 9 7 7 3 5 5 6 7 6 6 6 6 6 6 6 6 6 5 4 5 8 9 12 11 11
9 9 8 6 9 7 4 4 6 8 4 4 5 5 5 6 6 7 6 6 7 5 6 6 6 5 6 6 6 6 13 13 15
8 7 8 7 8 8 5 4 5 5 4 5 5 5 5 5 6 6 7 5 5 4 5 5 5 5 4 5 6 7 8 9 9
8 8 7 8 8 7 7 5 4 4 4 4 5 5 4 4 4 5 5 5 5 5 4 5 5 5 5 6 5 7 9 9 9
10 9 7 6 5 7 6 6 5 5 4 4 4 4 3 3 4 4 4 4 5 6 8 9 9 9 7 7 7 10 10 11 11
11 8 8 9 10 8 8 6 5 5 5 5 4 4 3 3 4 4 4 4 5 6 5 7 9 10 10 11 10 14 17 18 16
Wind_Direction
123 136 155 169 176 177 181 198 191 189 188 195 192 181 192 189 194 191 186 185 188 207 200 186 196 222 209 199 195 201 180 183 200
93 98 129 149 162 186 173 190 202 196 192 198 196 184 172 185 185 197 194 200 199 191 214 198 187 199 215 201 194 194 179 198 197
90 88 77 90 134 179 185 202 201 192 179 177 173 182 174 185 196 209 202 177 213 226 230 219 209 210 212 220 197 196 184 192 220
93 86 81 80 44 35 187 177 167 139 131 132 114 297 191 172 212 212 220 221 228 226 223 226 224 223 234 224 194 205 194 193 211
135 129 117 108 76 52 156 179 157 152 131 135 112 119 62 136 181 210 211 256 260 242 237 216 235 241 242 220 210 203 208 208 195
148 139 133 125 113 100 99 126 151 124 121 124 111 113 84 41 58 96 89 78 68 209 262 237 235 229 229 247 224 231 227 231 235
127 110 108 113 119 98 84 104 93 123 135 134 143 123 117 123 93 92 103 85 61 61 50 154 219 226 230 239 247 242 241 233 235
131 126 117 102 112 103 85 82 85 93 82 81 120 126 149 150 132 84 65 78 63 52 64 56 28 234 252 251 247 246 230 233 240
130 126 121 119 103 95 85 65 77 78 76 74 76 74 73 80 84 84 56 47 58 58 58 48 57 49 45 8 305 300 272 252 249
134 125 111 103 95 88 78 69 70 76 78 83 81 78 64 53 66 60 58 57 33 46 43 32 47 48 47 46 32 6 1 341 265
147 140 119 101 88 84 78 72 69 74 72 71 72 65 58 50 59 60 51 39 67 40 37 34 35 39 36 50 30 342 327 337 305
114 107 106 97 99 102 94 88 84 78 68 65 62 55 49 38 42 58 56 42 16 24 30 26 10 67 54 21 51 39 16 347 325
119 122 116 107 100 96 89 83 90 83 74 69 63 56 48 35 31 43 40 32 24 26 4 7 28 25 52 49 67 50 39 26 15
125 124 117 103 92 96 102 97 97 87 82 70 57 54 51 49 36 44 22 23 33 26 34 40 32 39 29 33 43 56 45 40 27
137 129 120 112 108 107 107 100 99 91 77 63 59 56 54 44 33 37 29 38 23 27 31 50 41 29 20 17 21 43 31 34 26
139 136 127 120 124 117 97 94 109 111 121 110 92 77 63 45 39 37 27 38 33 37 26 36 34 27 23 6 4 5 13 9 5
139 142 141 139 129 124 119 107 96 109 113 101 95 82 61 56 58 44 30 31 34 40 40 36 26 30 17 1 8 9 4 356 350
160 156 154 149 144 146 145 140 126 120 110 107 99 94 78 52 49 49 43 32 25 21 19 19 18 13 2 4 3 359 340 340 343
162 172 156 144 149 144 156 155 148 143 136 120 117 100 87 84 75 52 42 30 19 9 10 359 4 359 6 350 333 343 345 331 322
168 163 165 168 175 176 164 161 162 166 156 141 127 121 110 79 80 71 48 39 37 23 4 4 8 360 356 353 353 358 344 335 336